| time (UTC) | temp F | wind direction | speed knots | gust knots | rain 1hr in | rain 24hr in | rain mn in | humidity % | barometer mb |
| 20260505101525 | 42 | 107 | 13.0 | 22.6 | 0.00 | 0.00 | 0.00 | 61 | 1007.3 |
| 20260505100528 | 42 | 134 | 13.9 | 20.9 | 0.00 | 0.00 | 0.00 | 61 | 1007.4 |
| 20260505095551 | 42 | 63 | 13.9 | 23.5 | 0.00 | 0.00 | 0.00 | 60 | 1007.0 |
| 20260505094528 | 43 | 113 | 13.0 | 23.5 | 0.00 | 0.00 | 0.00 | 60 | 1006.5 |
| 20260505093529 | 43 | 71 | 10.4 | 18.2 | 0.00 | 0.00 | 0.00 | 59 | 1006.5 |
| 20260505092520 | 43 | 148 | 10.4 | 20.0 | 0.00 | 0.00 | 0.00 | 59 | 1006.3 |
| 20260505091521 | 44 | 81 | 10.4 | 15.6 | 0.00 | 0.00 | 0.00 | 59 | 1006.4 |
| 20260505090525 | 44 | 99 | 9.6 | 15.6 | 0.00 | 0.00 | 0.00 | 58 | 1006.8 |
| 20260505085525 | 44 | 90 | 10.4 | 12.2 | 0.00 | 0.00 | 0.00 | 58 | 1006.7 |
| 20260505084521 | 45 | 152 | 11.3 | 20.9 | 0.00 | 0.00 | 0.00 | 58 | 1006.9 |
| 20260505083523 | 45 | 119 | 12.2 | 16.5 | 0.00 | 0.00 | 0.00 | 58 | 1006.9 |
| 20260505082526 | 46 | 107 | 12.2 | 18.2 | 0.00 | 0.00 | 0.00 | 58 | 1006.8 |
| 20260505081522 | 46 | 85 | 12.2 | 17.4 | 0.00 | 0.00 | 0.00 | 58 | 1006.5 |
| 20260505080549 | 46 | 95 | 13.0 | 18.2 | 0.00 | 0.00 | 0.00 | 58 | 1006.8 |
| 20260505075550 | 47 | 118 | 10.4 | 13.0 | 0.00 | 0.00 | 0.00 | 59 | 1007.2 |
| 20260505074527 | 47 | 162 | 10.4 | 10.4 | 0.00 | 0.00 | 0.00 | 59 | 1006.9 |
| 20260505073538 | 47 | 125 | 9.6 | 15.6 | 0.00 | 0.00 | 0.00 | 59 | 1006.9 |
| 20260505072539 | 47 | 108 | 9.6 | 17.4 | 0.00 | 0.00 | 0.00 | 59 | 1006.9 |
| 20260505070522 | 47 | 104 | 10.4 | 19.1 | 0.00 | 0.00 | 0.00 | 59 | 1006.4 |
| 20260505065626 | 48 | 111 | 10.4 | 13.9 | 0.00 | 0.00 | 0.00 | 59 | 1006.4 |
| 20260505064525 | 48 | 93 | 11.3 | 18.2 | 0.00 | 0.00 | 0.00 | 58 | 1006.3 |
| 20260505063529 | 49 | 89 | 9.6 | 17.4 | 0.00 | 0.00 | 0.00 | 59 | 1006.3 |
| 20260505062530 | 50 | 104 | 10.4 | 10.4 | 0.00 | 0.00 | 0.00 | 58 | 1006.6 |
| 20260505061521 | 50 | 104 | 9.6 | 14.8 | 0.00 | 0.00 | 0.00 | 59 | 1006.3 |
| 20260505060557 | 51 | 117 | 7.8 | 13.0 | 0.00 | 0.00 | 0.00 | 59 | 1006.3 |
| 20260505055524 | 51 | 82 | 8.7 | 13.0 | 0.00 | 0.00 | 0.00 | 58 | 1006.2 |
| 20260505054525 | 51 | 99 | 8.7 | 13.0 | 0.00 | 0.00 | 0.00 | 59 | 1006.0 |
| 20260505053526 | 52 | 112 | 9.6 | 13.0 | 0.00 | 0.00 | 0.00 | 58 | 1006.0 |
| 20260505052526 | 53 | 90 | 6.1 | 8.7 | 0.00 | 0.00 | 0.00 | 56 | 1006.6 |
| 20260505051528 | 54 | 164 | 5.2 | 9.6 | 0.00 | 0.00 | 0.00 | 52 | 1006.3 |
| 20260505050530 | 54 | 354 | 2.6 | 4.3 | 0.00 | 0.00 | 0.00 | 49 | 1006.5 |
| 20260505041522 | 56 | 97 | 6.1 | 10.4 | 0.00 | 0.00 | 0.00 | 44 | 1005.1 |
| 20260505040523 | 57 | 59 | 7.8 | 8.7 | 0.00 | 0.00 | 0.00 | 43 | 1004.8 |
| 20260505035525 | 58 | 108 | 8.7 | 14.8 | 0.00 | 0.00 | 0.00 | 42 | 1004.4 |
| 20260505034526 | 58 | 99 | 8.7 | 14.8 | 0.00 | 0.00 | 0.00 | 40 | 1003.7 |
| 20260505033529 | 59 | 90 | 9.6 | 13.0 | 0.00 | 0.00 | 0.00 | 39 | 1004.1 |
| 20260505032529 | 59 | 85 | 8.7 | 18.2 | 0.00 | 0.00 | 0.00 | 37 | 1003.7 |
| 20260505031531 | 60 | 126 | 9.6 | 18.2 | 0.00 | 0.00 | 0.00 | 36 | 1003.3 |
| 20260505030521 | 60 | 138 | 9.6 | 12.2 | 0.00 | 0.00 | 0.00 | 35 | 1003.0 |
| 20260505025521 | 61 | 94 | 7.8 | 17.4 | 0.00 | 0.00 | 0.00 | 34 | 1002.8 |
| 20260505024533 | 62 | 102 | 6.1 | 10.4 | 0.00 | 0.00 | 0.00 | 33 | 1001.9 |
| 20260505023524 | 63 | 68 | 6.1 | 12.2 | 0.00 | 0.00 | 0.00 | 29 | 1002.1 |
| 20260505022526 | 64 | 335 | 7.8 | 8.7 | 0.00 | 0.00 | 0.00 | 27 | 1001.9 |
| 20260505021528 | 64 | 338 | 4.3 | 10.4 | 0.00 | 0.00 | 0.00 | 26 | 1001.5 |
| 20260505020554 | 64 | 331 | 6.1 | 6.1 | 0.00 | 0.00 | 0.00 | 26 | 1001.3 |
| 20260505014525 | 66 | 4 | 5.2 | 5.2 | 0.00 | 0.00 | 0.00 | 25 | 1000.9 |
| 20260505013527 | 66 | 321 | 4.3 | 8.7 | 0.00 | 0.00 | 0.00 | 23 | 1001.2 |
| 20260505012528 | 67 | 338 | 5.2 | 5.2 | 0.00 | 0.00 | 0.00 | 23 | 1001.9 |
| 20260505011529 | 68 | 335 | 4.3 | 7.8 | 0.00 | 0.00 | 0.00 | 22 | 1002.1 |
| 20260505010530 | 69 | 323 | 0.9 | 7.0 | 0.00 | 0.00 | 0.00 | 22 | 1002.6 |
| 20260505004524 | 70 | 253 | 4.3 | 5.2 | 0.00 | 0.00 | 0.00 | 20 | 1003.2 |
| 20260505003525 | 71 | 318 | 5.2 | 9.6 | 0.00 | 0.00 | 0.00 | 19 | 1003.2 |
| 20260505002526 | 72 | 302 | 7.0 | 9.6 | 0.00 | 0.00 | 0.00 | 19 | 1003.5 |
| 20260505001553 | 73 | 298 | 6.1 | 10.4 | 0.00 | 0.00 | 0.00 | 18 | 1003.7 |
| 20260505000614 | 75 | 298 | 4.3 | 6.1 | 0.00 | 0.00 | 0.00 | 18 | 1004.1 |
| 20260504235524 | 78 | 295 | 2.6 | 5.2 | 0.00 | 0.00 | 0.00 | 17 | 1004.6 |
| 20260504233527 | 80 | 237 | 1.7 | 5.2 | 0.00 | 0.00 | 0.00 | 17 | 1005.4 |
| 20260504232527 | 77 | 295 | 4.3 | 7.0 | 0.00 | 0.00 | 0.00 | 18 | 1004.9 |
| 20260504231529 | 77 | 283 | 2.6 | 7.8 | 0.00 | 0.00 | 0.00 | 17 | 1005.2 |
| 20260504230556 | 77 | 321 | 3.5 | 4.3 | 0.00 | 0.00 | 0.00 | 20 | 1005.3 |
| 20260504225546 | 74 | 8 | 5.2 | 9.6 | 0.00 | 0.00 | 0.00 | 19 | 1004.6 |
| 20260504224523 | 77 | 330 | 2.6 | 7.0 | 0.00 | 0.00 | 0.00 | 18 | 1005.6 |
| 20260504223526 | 77 | 34 | 2.6 | 4.3 | 0.00 | 0.00 | 0.00 | 18 | 1005.7 |
| 20260504222526 | 77 | 306 | 1.7 | 3.5 | 0.00 | 0.00 | 0.00 | 18 | 1005.6 |
| 20260504221552 | 78 | 32 | 2.6 | 2.6 | 0.00 | 0.00 | 0.00 | 18 | 1005.9 |
| 20260504220528 | 79 | 260 | 2.6 | 3.5 | 0.00 | 0.00 | 0.00 | 19 | 1006.5 |
| 20260504215529 | 79 | 302 | 4.3 | 8.7 | 0.00 | 0.00 | 0.00 | 17 | 1006.5 |
| 20260504214529 | 78 | 340 | 2.6 | 4.3 | 0.00 | 0.00 | 0.00 | 20 | 1006.8 |
| 20260504213530 | 77 | 328 | 2.6 | 4.3 | 0.00 | 0.00 | 0.00 | 20 | 1006.5 |
| 20260504212521 | 75 | 300 | 3.5 | 7.0 | 0.00 | 0.00 | 0.00 | 20 | 1006.2 |
| 20260504210522 | 72 | 1 | 1.7 | 4.3 | 0.00 | 0.00 | 0.00 | 22 | 1005.9 |
| 20260504205523 | 72 | 302 | 6.1 | 6.1 | 0.00 | 0.00 | 0.00 | 20 | 1006.1 |
| 20260504204524 | 75 | 327 | 3.5 | 12.2 | 0.00 | 0.00 | 0.00 | 20 | 1006.9 |
| 20260504203525 | 73 | 262 | 2.6 | 4.3 | 0.00 | 0.00 | 0.00 | 22 | 1006.7 |
| 20260504202536 | 72 | 57 | 2.6 | 3.5 | 0.00 | 0.00 | 0.00 | 22 | 1006.9 |
| 20260504201526 | 72 | 324 | 3.5 | 8.7 | 0.00 | 0.00 | 0.00 | 21 | 1007.0 |
| 20260504200537 | 73 | 36 | 1.7 | 5.2 | 0.00 | 0.00 | 0.00 | 23 | 1007.5 |
| 20260504195525 | 72 | 13 | 1.7 | 2.6 | 0.00 | 0.00 | 0.00 | 23 | 1007.2 |
| 20260504194527 | 71 | 0 | 3.5 | 4.3 | 0.00 | 0.00 | 0.00 | 23 | 1007.4 |
| 20260504193529 | 70 | 5 | 4.3 | 5.2 | 0.00 | 0.00 | 0.00 | 24 | 1007.3 |
| 20260504192532 | 70 | 36 | 2.6 | 7.0 | 0.00 | 0.00 | 0.00 | 24 | 1007.7 |
| 20260504191522 | 69 | 26 | 2.6 | 7.8 | 0.00 | 0.00 | 0.00 | 24 | 1007.9 |
| 20260504190523 | 69 | 53 | 3.5 | 4.3 | 0.00 | 0.00 | 0.00 | 24 | 1008.1 |
| 20260504185524 | 68 | 348 | 4.3 | 6.1 | 0.00 | 0.00 | 0.00 | 24 | 1007.7 |
| 20260504184527 | 67 | 335 | 4.3 | 7.8 | 0.00 | 0.00 | 0.00 | 26 | 1008.0 |
| 20260504183618 | 68 | 330 | 2.6 | 7.8 | 0.00 | 0.00 | 0.00 | 26 | 1008.2 |
| 20260504182529 | 67 | 135 | 2.6 | 4.3 | 0.00 | 0.00 | 0.00 | 29 | 1008.4 |
| 20260504181531 | 65 | 71 | 2.6 | 5.2 | 0.00 | 0.00 | 0.00 | 27 | 1008.4 |
| 20260504180532 | 64 | 9 | 3.5 | 4.3 | 0.00 | 0.00 | 0.00 | 27 | 1008.5 |
| 20260504175521 | 64 | 5 | 3.5 | 6.1 | 0.00 | 0.00 | 0.00 | 27 | 1008.5 |
| 20260504174532 | 63 | 41 | 1.7 | 5.2 | 0.00 | 0.00 | 0.00 | 31 | 1008.7 |
| 20260504173525 | 62 | 319 | 1.7 | 6.1 | 0.00 | 0.00 | 0.00 | 30 | 1008.7 |
| 20260504172526 | 61 | 307 | 1.7 | 1.7 | 0.00 | 0.00 | 0.00 | 31 | 1008.7 |
| 20260504171526 | 61 | 284 | 2.6 | 2.6 | 0.00 | 0.00 | 0.00 | 31 | 1009.0 |
| 20260504170528 | 60 | 306 | 2.6 | 5.2 | 0.00 | 0.00 | 0.00 | 32 | 1009.1 |
| 20260504150526 | 47 | 349 | 1.7 | 1.7 | 0.00 | 0.00 | 0.00 | 47 | 1008.2 |
| 20260504140611 | 42 | 49 | 0.9 | 0.9 | 0.00 | 0.00 | 0.00 | 55 | 1007.8 |
| 20260504130618 | 38 | 286 | 0.9 | 1.7 | 0.00 | 0.00 | 0.00 | 58 | 1006.9 |
| 20260504110522 | 40 | 263 | 0.9 | 0.9 | 0.00 | 0.00 | 0.00 | 53 | 1007.8 |